Flag for India Weather past 2 weeks in Firozpur, Punjab, India

59 °F


Feels Like: 59 °F
Forecast: 59 / 78 °F
Wind: No wind

Location: Lahore Airport

Current Time: Nov 29, 2015 at 2:32:39 AM

Latest Report: Nov 29, 2015 at 1:55 AM

Visibility: 2 mi

Pressure: 30.07 "Hg

Humidity: 72%

Dew point: 50 °F

Location of FirozpurLocation

Historic Weather in Firozpur — Graph


Firozpur temperature yesterday

Maximum temperature yesterday: 75 °F (at 1:55 PM)
Minimum temperature yesterday: 50 °F (at 7:25 AM)
Average temperature yesterday: 64 °F

Past Weeks' High & Low Weather Summary

High82 °F (Nov 15, 2:55 PM)94% (Nov 18, 8:00 AM)30.15 "Hg (Nov 18, 8:00 AM)
Low50 °F (Nov 28, 7:25 AM)23% (Nov 19, 3:25 PM)29.89 "Hg (Nov 14, 2:55 PM)
Average67 °F57%30.00 "Hg
* Reported Nov 14 12:30 AM — Nov 29 1:25 AM, Firozpur, Weather by CustomWeather, © 2015

Note: Actual official high and low records may vary slightly from our data, if they occured in-between our weather recording intervals... More about our weather records


Firozpur weather history for previous 24 hours

Time TempWeatherWind HumidityBarometerVisibility
1:25 AM
Sun, Nov 29
59 °FClear.No wind72%30.07 "Hg2 mi
12:55 AM59 °FClear.3 mph72%30.07 "Hg2 mi
12:25 AM61 °FClear.No wind68%30.07 "Hg2 mi
11:55 PM
Sat, Nov 28
61 °FClear.No wind68%30.09 "Hg2 mi
11:25 PM63 °FClear.No wind64%30.09 "Hg2 mi
9:55 PM64 °FClear.No wind64%30.07 "Hg2 mi
9:25 PM66 °FClear.No wind56%30.07 "Hg2 mi
8:55 PM68 °FClear.3 mph53%30.07 "Hg2 mi
8:25 PM68 °FClear.No wind53%30.07 "Hg2 mi
7:55 PM70 °FHaze.3 mph46%30.04 "Hg2 mi
7:25 PM70 °FHaze.No wind46%30.04 "Hg2 mi
6:55 PM72 °FHaze.3 mph38%30.04 "Hg3 mi
6:25 PM72 °FHaze.No wind38%30.04 "Hg3 mi
6:00 PM72 °FHaze.5 mph38%30.01 "Hg3 mi
5:25 PM73 °FHaze.5 mph38%30.01 "Hg3 mi
4:55 PM73 °FHaze.5 mph36%30.01 "Hg3 mi
4:25 PM75 °FHaze.7 mph34%30.01 "Hg3 mi
3:55 PM75 °FHaze.7 mph34%30.01 "Hg3 mi
3:25 PM75 °FClear.7 mph34%30.01 "Hg4 mi
2:55 PM75 °FClear.7 mph34%30.01 "Hg4 mi
2:25 PM75 °FClear.7 mph34%30.04 "Hg4 mi
1:55 PM75 °FClear.6 mph36%30.04 "Hg4 mi
1:25 PM73 °FClear.6 mph38%30.04 "Hg4 mi
12:55 PM72 °FClear.6 mph44%30.04 "Hg4 mi
12:25 PM70 °FClear.5 mph46%30.07 "Hg4 mi
11:55 AM68 °FHaze.5 mph53%30.07 "Hg3 mi
11:25 AM66 °FClear.8 mph56%30.09 "Hg2 mi
10:25 AM61 °FClear.9 mph68%30.09 "Hg2 mi
9:55 AM59 °FClear.6 mph68%30.09 "Hg1 mi
9:25 AM57 °FClear.6 mph72%30.07 "Hg1 mi
9:00 AM55 °FClear.3 mph77%30.07 "Hg1 mi
8:25 AM54 °FFog.No wind82%30.04 "Hg1 mi
7:25 AM50 °FFog.3 mph88%30.01 "Hg1 mi
6:55 AM52 °FFog.No wind88%30.01 "Hg2 mi
6:25 AM52 °FClear.5 mph88%30.01 "Hg2 mi
5:25 AM52 °FClear.3 mph88%29.98 "Hg2 mi
4:55 AM54 °FClear.No wind82%29.98 "Hg2 mi
4:25 AM54 °FClear.No wind82%29.98 "Hg2 mi
3:55 AM55 °FClear.3 mph82%29.98 "Hg2 mi
2:55 AM57 °FClear.3 mph77%29.98 "Hg2 mi
2:25 AM57 °FClear.3 mph77%29.98 "Hg2 mi
Weather by CustomWeather, © 2015

See weather overviewHow to use our weather pages